Location: *
(49.1671°S, 177.6420°W)
Time: 17:01:51
(UTC+00:00)

Daily predictions for brighter satellites

Satellite Brightness Start Highest point End
(mag) Time Altitude Azimuth Time Altitude Azimuth Time Altitude Azimuth
Cosmos 2360 Rocket 3.9 15:14:05 29° ESE 15:14:05 29° ESE 15:17:20 10° SE
Cosmos 2333 Rocket 3.6 15:28:47 35° SE 15:28:47 35° SE 15:32:11 10° SE
CZ-4C R/B 3.8 15:39:21 34° S 15:39:21 34° S 15:43:38 10° SE
ATLAS 5 CENTAUR R/B 4.1 15:45:00 23° S 15:45:00 23° S 15:49:28 10° SE
SL-16 R/B 3.0 15:53:41 10° SSE 15:59:55 58° ENE 16:04:52 16° N
ATLAS 2AS CENTAUR R/B 2.8 16:01:00 70° NNW 16:01:00 70° NNW 16:07:49 10° NNE
ACS3 Solar Sail 2.9 15:56:08 10° NE 16:02:02 44° ESE 16:08:03 10° S
SL-4 R/B 4.3 16:09:12 20° NE 16:09:12 20° NE 16:10:36 10° NE
Cosmos 2219 Rocket 2.6 16:09:57 49° NNE 16:11:04 59° ENE 16:16:38 10° SE
Cosmos 304 Rocket 4.3 16:15:01 56° ESE 16:15:01 56° ESE 16:19:39 10° NE
Cosmos 1850 Rocket 4.2 16:15:23 72° SE 16:15:31 73° ESE 16:20:53 10° NNE
Cosmos 1980 Rocket 4.3 16:19:03 14° S 16:19:03 14° S 16:20:37 10° S
SL-16 R/B 3.3 16:20:37 33° S 16:20:37 33° S 16:24:08 10° SSE
Cosmos 2278 Rocket 3.7 16:17:34 17° S 16:21:19 33° SE 16:26:24 10° ENE
Cosmos 1092 Rocket 4.2 16:15:41 10° S 16:22:00 71° ESE 16:28:12 10° NNE
IRAS Rocket 4.1 16:23:45 10° NNE 16:29:19 88° ESE 16:32:00 33° SSW
Cosmos 2322 Rocket 2.5 16:32:43 49° SSW 16:32:43 49° SSW 16:37:24 10° SSE
Cosmos 1428 Rocket 4.4 16:26:23 10° SSW 16:32:42 68° W 16:38:59 10° N
Cosmos 1452 Rocket 3.8 16:34:28 20° N 16:38:08 68° ENE 16:43:27 10° SSE
ARIANE 5 R/B 2.6 16:36:41 10° NNE 16:41:41 75° ESE 16:46:39 11° SSW
Cosmos 1110 Rocket 3.9 16:40:01 40° NNW 16:41:59 86° ENE 16:47:14 10° SSE
BREEZE-M DEB (TANK) 4.0 16:37:32 34° WNW 16:43:38 88° N 16:47:54 10° E
CZ-2D R/B 3.9 16:42:16 10° NNE 16:44:46 43° NE 16:44:46 43° NE
Cosmos 1025 Rocket 3.4 16:47:17 52° NNW 16:47:17 52° NNW 16:50:41 10° N
DMSP B5D2-2 4.4 16:44:08 10° S 16:48:23 45° SW 16:48:23 45° SW
Cosmos 1741 Rocket 3.9 16:48:49 59° WSW 16:49:30 66° WNW 16:54:40 10° N
Cosmos 1782 Rocket 4.4 16:47:57 10° N 16:52:17 53° E 16:56:41 10° SSE
SJ-12 3.8 16:52:04 10° NNE 16:55:59 82° ESE 16:57:22 40° S
Cosmos 2360 Rocket 2.5 16:55:52 44° WSW 16:56:02 44° SW 17:01:32 10° SSE
Gbstr 26 Del rocket 3.3 16:55:37 57° W 16:56:39 81° SSW 17:02:33 10° ESE
BREEZE-M DEB (TANK) 3.8 16:58:39 25° NE 16:58:39 25° NE 17:00:06 10° E
GEOS 3 Rocket 3.8 16:55:45 10° SE 17:00:51 51° SW 17:01:50 45° WSW
IGS 5A 3.9 16:57:48 10° NNE 17:01:49 61° ESE 17:05:52 10° S
Timation 2 Rocket 4.1 16:58:20 21° SW 17:03:15 75° WNW 17:09:58 10° NNE
Cosmos 2034 Rocket 4.2 17:03:37 16° NW 17:08:26 46° WSW 17:14:36 10° S
CZ-2D R/B 4.0 17:05:13 10° NNE 17:09:02 55° ESE 17:13:00 10° S
SJ-6F 4.5 17:04:59 10° NNE 17:09:03 78° ESE 17:13:03 10° S
Lacrosse 5 rocket 0.9 17:10:04 60° NW 17:10:40 83° NE 17:14:27 10° ESE
Cosmos 2333 Rocket 2.9 17:10:49 32° SW 17:11:11 33° SW 17:16:20 10° SSE
Orbus 7S? 3.8 17:10:38 29° SW 17:13:24 71° SSE 17:16:45 10° ENE
UNK 3.8 17:12:26 10° S 17:16:59 52° WSW 17:21:30 10° NW
Cosmos 1302 Rocket 4.2 17:12:45 10° NNW 17:18:02 75° ENE 17:23:24 10° SSE
Cosmos 1943 Rocket 2.6 17:12:54 11° SSW 17:18:26 64° ESE 17:24:02 10° NE
Cosmos 1331 Rocket 4.1 17:16:35 23° NW 17:19:38 53° WSW 17:24:47 10° SSE
Cosmos 2237 Rocket 3.8 17:16:35 10° N 17:21:47 37° ENE 17:27:01 10° SE
Cosmos 371 Rocket 3.7 17:21:05 35° W 17:21:49 38° WNW 17:26:14 10° N
Cosmos 968 Rocket 4.1 17:23:58 31° W 17:24:24 32° WNW 17:28:53 10° NNW
Cosmos 2369 Rocket 4.4 17:20:31 10° S 17:24:27 19° SE 17:28:23 10° E
Genesis I 2.0 17:25:46 86° WNW 17:25:48 88° WSW 17:28:30 10° SE
Cosmos 2322 3.7 17:20:36 10° NNW 17:26:22 82° WSW 17:32:11 10° SSE
USA 307 2.8 17:26:28 35° S 17:26:55 38° SSE 17:30:09 10° E
Cosmos 1300 Rocket 3.5 17:22:56 10° NNW 17:27:21 71° W 17:31:53 10° S
CZ-4C R/B 4.0 17:24:21 17° SW 17:27:32 23° S 17:32:15 10° SE
USA 305 3.3 17:28:37 34° WNW 17:29:26 38° NW 17:33:01 10° NNE
ATLAS 5 CENTAUR R/B 3.6 17:24:57 13° SSW 17:29:47 31° SSE 17:34:34 10° E
Cosmos 2026 Rocket 4.5 17:27:56 10° SSW 17:33:26 35° W 17:38:57 10° NNW
Cosmos 1500 4.1 17:31:23 10° S 17:33:44 30° ESE 17:36:04 10° NE
IRS-P3 4.2 17:29:13 10° N 17:34:28 55° W 17:39:48 10° SSW
Cosmos 1908 Rocket 4.2 17:34:06 22° WNW 17:36:04 32° WSW 17:40:07 10° S
COSMO-SKYMED 1 3.9 17:37:04 10° SSE 17:41:14 43° E 17:45:21 10° N
SMAP 3.3 17:38:34 10° N 17:43:05 47° W 17:47:41 10° SSW
SL-16 R/B 3.2 17:37:43 10° S 17:43:10 32° WSW 17:48:33 10° WNW
AQUARIUS 4.1 17:39:00 10° N 17:43:28 69° WNW 17:47:58 10° SSW
SL-4 R/B 3.9 17:43:17 15° WNW 17:43:53 16° NW 17:46:22 10° N
ACS3 Solar Sail 2.3 17:39:39 10° NNW 17:45:28 39° W 17:51:24 10° SSW
Cosmos 292 Rocket 4.3 17:43:30 10° SSW 17:48:14 58° ESE 17:52:55 10° NE
PSLV R/B 3.4 17:45:05 10° NNE 17:49:19 83° WNW 17:53:34 10° SSW
ATLAS 2AS CENTAUR R/B 4.1 17:48:29 17° W 17:50:12 19° WNW 17:54:59 10° NNW
SL-19 R/B 4.1 17:48:43 10° N 17:53:57 66° WNW 17:59:24 10° SSW
Cosmos 2219 Rocket 3.0 17:51:43 16° W 17:55:22 30° SW 18:00:21 10° SSE
SL-24 R/B 4.2 17:53:22 10° N 17:57:31 60° W 18:02:20 10° SSW
Resurs 01 Rocket 4.1 17:55:41 10° ENE 17:58:58 21° ESE 18:02:17 10° SSE
Cosmos 1975 Rocket 3.6 17:58:31 10° SSW 18:02:33 36° W 18:06:31 10° NNW
Cosmos 2058 4.3 17:59:01 10° S 18:02:48 39° ESE 18:06:34 10° NE
SL-16 R/B 4.0 18:02:29 12° SW 18:04:20 13° SSW 18:07:06 10° S
COSMOS 2428 2.9 17:59:15 10° NW 18:04:51 54° SW 18:10:31 10° SSE
Cosmos 2278 Rocket 2.4 18:00:05 10° SW 18:05:40 54° WNW 18:11:11 10° N
Cosmos 1992 Rocket 4.0 18:02:03 10° NNW 18:07:16 81° WSW 18:12:34 10° SSE
CENTAUR R/B 2.9 17:59:40 10° NW 18:08:00 86° SW 18:14:43 10° SE
NOSS 3-3 (A) 4.3 18:02:26 10° SW 18:09:12 61° SE 18:14:47 10° ENE
Okean 2 Rocket 3.8 18:07:55 10° N 18:12:22 59° E 18:16:51 10° SSE
SKYMED 2 3.6 18:09:14 10° SSE 18:13:41 89° WSW 18:18:05 10° NNW
Okean 1 Rocket 4.2 18:12:32 10° NNE 18:16:53 50° E 18:21:17 10° SSE
SL-23 DEB 4.3 18:10:44 10° W 18:17:09 76° SSW 18:21:02 10° ESE
Cosmos 2322 Rocket 3.8 18:14:33 12° WSW 18:17:12 15° SSW 18:20:29 10° S
Cosmos 1486 Rocket 4.1 18:11:48 10° SSW 18:17:13 85° ESE 18:22:31 10° NNE
NOAA 6 4.2 18:13:25 10° NNE 18:18:37 81° ESE 18:23:52 10° SSW
Landsat 7 4.0 18:14:07 10° N 18:18:41 50° W 18:23:19 10° SSW
Radarsat Rocket 4.2 18:11:57 10° NNE 18:18:42 89° ESE 18:24:51 10° SSW
Cosmos 2279 Rocket 4.5 18:13:01 10° NW 18:18:45 37° WSW 18:24:33 10° S
ARIANE 5 R/B 3.9 18:18:08 10° NW 18:21:19 17° W 18:24:32 10° SW
Cosmos 1666 2.0 18:19:51 10° SSW 18:22:23 43° W 18:24:50 10° N
CZ-4B R/B 4.4 18:18:46 10° NNE 18:22:55 67° ESE 18:27:06 10° S
NOSS 3-2 (A) 4.5 18:16:36 10° NNW 18:25:41 78° NE 18:33:29 10° SE
Sich 1 Rocket 3.9 18:22:52 10° N 18:27:20 74° E 18:31:55 10° SSE
Cosmos 1980 3.7 18:22:01 10° NW 18:27:42 73° WSW 18:33:26 10° SSE
Cosmos 1606 3.0 18:27:54 10° NW 18:30:44 30° WSW 18:33:37 10° S
NOSS 3-3 (C) 4.1 18:24:54 10° SW 18:31:40 73° SE 18:37:12 10° NE
BREEZE-M DEB (TANK) 3.8 18:23:53 10° WSW 18:31:56 45° NW 18:34:46 10° NNE
BlueWalker 3 2.4 18:32:57 10° NW 18:36:40 62° NNE 18:40:24 10° ESE
Cosmos 1656 Rocket 4.0 18:31:44 10° SSW 18:37:16 68° ESE 18:42:49 10° NE
Cosmos 1340 Rocket 4.3 18:36:46 10° NNE 18:40:25 41° E 18:44:10 10° SSE
